Location: Byszew
(52.1813°N, 19.2693°E)
Time: 01:48:43
(UTC+00:00)

USA 281 - Pass Details

Date: 03 March 2021
Orbit: 1076 x 1083 km, 106.0° (Epoch: 03 April)

Event Time Altitude Azimuth Distance (km) Brightness Sun altitude
Exits shadow 19:47:37 41° 39° (NE) 1,524 3.9 -30.4°
Drops below altitude 10° 19:53:18 10° 340° (NNW) 2,929 6.1 -31.2°
Sets 19:55:58 0° 334° (NNW) 3,889 7.0 -31.5°
